This demonstration page uses our WeatherBlox Daily Observations layout. Learn more.

Left ArrowRight Arrow

40.92945, -100.16068

Hourly Observations for April 11, 2021

Temp ( °F °C ) Dew Point ( °F °C ) Humidity (%) Winds ( mph kmh ) Pressure ( in mb ) Visibility ( mi km ) Precip ( " mm )
12:15 am 00:15 Clear 41 4.9 24 -4.2 52 52 SSE 5 7 29.71 1006 10 16.0934 0 0
12:35 am 00:35 Clear 41 5.1 24 -4.2 51 51 SSE 6 9 29.71 1006 10 16.0934 0 0
12:55 am 00:55 Clear 43 6.2 22 -5.4 44 44 SSE 5 7 29.69 1005 10 16.0934 0 0
1:15 am 01:15 Clear 37 2.6 26 -3.3 65 65 SE 3 6 29.71 1006 10 16.0934 0 0
1:35 am 01:35 Clear 38 3.5 25 -4.1 58 58 S 7 11 29.7 1006 10 16.0934 0 0
1:55 am 01:55 Clear 44 6.6 22 -5.7 41 41 SSE 6 9 29.67 1005 10 16.0934 0 0
2:15 am 02:15 Clear 44 6.4 21 -6.1 41 41 SSE 5 7 29.66 1005 10 16.0934 0 0
2:35 am 02:35 Clear 42 5.4 22 -5.6 45 45 SSE 5 7 29.66 1005 10 16.0934 0 0
2:55 am 02:55 Clear 42 5.8 21 -5.9 43 43 Calm 29.65 1004 10 16.0934 0 0
3:15 am 03:15 Clear 44 6.9 21 -6.1 39 39 S 6 9 29.63 1003 10 16.0934 0 0
3:35 am 03:35 Clear 45 7.1 21 -6 39 39 Calm 29.62 1003 10 16.0934 0 0
3:55 am 03:55 Clear 45 7.2 22 -5.5 40 40 SSE 3 6 29.62 1003 10 16.0934 0 0
4:15 am 04:15 Clear 42 5.5 24 -4.6 49 49 Calm 29.61 1003 10 16.0934 0 0
4:35 am 04:35 Clear 38 3.5 25 -3.7 60 60 Calm 29.63 1003 10 16.0934 0 0
4:55 am 04:55 Clear 35 1.6 26 -3.4 70 70 Calm 29.64 1004 10 16.0934 0 0
5:15 am 05:15 Clear 38 3.6 25 -3.9 58 58 SSE 6 9 29.62 1003 10 16.0934 0 0
5:35 am 05:35 Clear 39 3.8 24 -4.2 56 56 S 5 7 29.61 1003 10 16.0934 0 0
5:55 am 05:55 Clear 35 1.6 25 -3.9 67 67 Calm 29.63 1003 10 16.0934 0 0
6:15 am 06:15 Clear 32 -0.1 26 -3.2 80 80 WNW 3 6 29.65 1004 10 16.0934 0 0
6:35 am 06:35 Clear 32 0 25 -3.8 76 76 W 6 9 29.65 1004 10 16.0934 0 0
6:55 am 06:55 Clear 31 -0.3 24 -4.4 74 74 W 7 11 29.65 1004 10 16.0934 0 0
7:15 am 07:15 Sunny 33 0.3 26 -3.6 75 75 WNW 9 15 29.66 1004 10 16.0934 0 0
7:35 am 07:35 Sunny 37 2.7 26 -3.1 66 66 WNW 18 30 29.66 1004 10 16.0934 0 0
7:55 am 07:55 Sunny 39 4.1 27 -3 60 60 WNW 20 31 29.66 1004 10 16.0934 0 0
8:15 am 08:15 Sunny 42 5.5 28 -2.3 58 58 WNW 21 33 29.65 1004 10 16.0934 0 0
8:35 am 08:35 Sunny 44 6.4 29 -1.5 57 57 WNW 20 31 29.66 1005 10 16.0934 0 0
8:55 am 08:55 Sunny 46 7.6 31 -0.6 56 56 WNW 17 28 29.65 1004 10 16.0934 0 0
9:15 am 09:15 Sunny 49 9.2 32 0.1 53 53 NW 29 46 29.66 1004 10 16.0934 0 0
9:35 am 09:35 Sunny 50 9.9 33 0.3 52 52 NNW 25 41 29.66 1004 10 16.0934 0 0
9:55 am 09:55 Sunny 50 9.8 33 0.3 52 52 NW 26 43 29.68 1005 10 16.0934 0 0
10:15 am 10:15 Sunny 51 10.4 33 0.7 51 51 NW 29 46 29.69 1005 10 16.0934 0 0
10:35 am 10:35 Sunny 52 11 33 0.5 49 49 NNW 29 46 29.68 1005 10 16.0934 0 0
10:55 am 10:55 Sunny 53 11.5 33 0.7 48 48 NW 25 41 29.69 1005 10 16.0934 0 0
11:15 am 11:15 Sunny 54 12.3 34 0.9 46 46 NNW 25 41 29.69 1005 10 16.0934 0 0
11:35 am 11:35 Sunny 55 12.5 33 0.6 44 44 NW 33 54 29.71 1006 10 16.0934 0 0
11:55 am 11:55 Sunny 55 12.7 33 0.4 43 43 NNW 30 48 29.71 1006 10 16.0934 0 0
12:15 pm 12:15 Sunny 55 12.9 33 0.7 44 44 NW 35 56 29.71 1006 10 16.0934 0 0
12:35 pm 12:35 Sunny 55 13 33 0.4 42 42 NW 33 54 29.72 1007 10 16.0934 0 0
12:55 pm 12:55 Sunny 56 13.5 33 0.3 41 41 NW 31 50 29.72 1006 10 16.0934 0 0
1:15 pm 13:15 Sunny 57 13.9 33 0.5 40 40 NW 26 43 29.73 1007 10 16.0934 0 0
1:35 pm 13:35 Sunny 57 14.1 32 0.1 39 39 NNW 30 48 29.72 1007 10 16.0934 0 0
1:55 pm 13:55 Sunny 58 14.3 32 0.2 38 38 NW 35 56 29.73 1007 10 16.0934 0 0
2:15 pm 14:15 Sunny 58 14.3 32 0.2 38 38 NNW 32 52 29.73 1007 10 16.0934 0 0
2:35 pm 14:35 Sunny 58 14.4 33 0.3 38 38 NNW 32 52 29.72 1006 10 16.0934 0 0
2:55 pm 14:55 Sunny 58 14.3 32 0 38 38 NNW 33 54 29.72 1007 10 16.0934 0 0
3:15 pm 15:15 Sunny 59 15 32 0 36 36 N 32 52 29.71 1006 10 16.0934 0 0
3:35 pm 15:35 Sunny 59 15 31 -0.7 34 34 N 35 56 29.71 1006 10 16.0934 0 0
3:55 pm 15:55 Sunny 60 15.3 31 -0.5 34 34 NNW 30 48 29.7 1006 10 16.0934 0 0
4:15 pm 16:15 Sunny 60 15.4 30 -1 33 33 N 33 54 29.7 1006 10 16.0934 0 0
4:35 pm 16:35 Sunny 60 15.4 28 -2 30 30 NNW 33 54 29.71 1006 10 16.0934 0 0
4:55 pm 16:55 Sunny 60 15.6 28 -2.4 29 29 NNW 24 39 29.73 1007 10 16.0934 0 0
5:15 pm 17:15 Sunny 60 15.3 26 -3.4 28 28 NNW 30 48 29.73 1007 10 16.0934 0 0
5:35 pm 17:35 Sunny 59 15.2 24 -4.5 26 26 N 29 46 29.73 1007 10 16.0934 0 0
5:55 pm 17:55 Sunny 59 15.2 24 -4.4 26 26 NNW 23 37 29.74 1007 10 16.0934 0 0
6:15 pm 18:15 Sunny 59 14.9 23 -5.2 25 25 NNW 24 39 29.75 1007 10 16.0934 0 0
6:35 pm 18:35 Sunny 58 14.7 23 -5 25 25 NNW 24 39 29.77 1008 10 16.0934 0 0
6:55 pm 18:55 Sunny 58 14.4 23 -5.1 26 26 NNW 20 31 29.78 1009 10 16.0934 0 0
7:15 pm 19:15 Sunny 57 14 23 -4.9 27 27 N 18 30 29.79 1009 10 16.0934 0 0
7:35 pm 19:35 Sunny 55 13 23 -4.8 29 29 NNW 17 28 29.8 1009 10 16.0934 0 0
7:55 pm 19:55 Sunny 54 12.2 24 -4.7 31 31 N 14 22 29.82 1010 10 16.0934 0 0
8:15 pm 20:15 Clear 52 11 24 -4.6 33 33 N 14 22 29.84 1011 10 16.0934 0 0
8:35 pm 20:35 Clear 50 9.8 25 -4 38 38 N 21 33 29.87 1012 10 16.0934 0 0
8:55 pm 20:55 Clear 48 8.7 26 -3.5 42 42 N 14 22 29.89 1012 10 16.0934 0 0
9:15 pm 21:15 Clear 46 8 26 -3.5 44 44 N 15 24 29.91 1013 10 16.0934 0 0
9:35 pm 21:35 Clear 46 7.9 25 -3.8 44 44 N 17 28 29.92 1013 10 16.0934 0 0
9:55 pm 21:55 Clear 47 8.1 23 -5.2 39 39 N 22 35 29.93 1014 10 16.0934 0 0
10:15 pm 22:15 Clear 45 7.3 22 -5.5 40 40 N 20 31 29.96 1014 10 16.0934 0 0
10:35 pm 22:35 Clear 45 7.3 24 -4.4 44 44 N 21 33 29.98 1015 10 16.0934 0 0
10:55 pm 22:55 Clear 45 7 25 -3.7 47 47 N 22 35 30 1016 10 16.0934 0 0
11:15 pm 23:15 Clear 43 6.3 26 -3.5 50 50 N 22 35 30.01 1016 10 16.0934 0 0
11:35 pm 23:35 Clear 42 5.7 27 -3 54 54 N 21 33 30.01 1016 10 16.0934 0 0
11:55 pm 23:55 Clear 42 5.5 28 -2.5 57 57 N 20 31 30.02 1017 10 16.0934 0 0

Powered by AerisWeather